Regional Weather Roundup
Issued by NWS

Home | Current Version | Previous Version | Graphics & Text | Print | Product List | Glossary On
Versions: 1 2 3 4 5 6 7 8 9 10 11 12 13 14 15 16 17 18 19 20 21 22 23 24 25 26 27 28 29 30 31 32 33 34 35 36 37 38 39 40 41 42 43 44 45 46 47 48 49 50
452
ASUS45 KCYS 192210
RWRWY

WYOMING REGIONAL WEATHER ROUNDUP
NATIONAL WEATHER SERVICE CHEYENNE WY
400 PM MDT TUE SEP 19 2017

NOTE:  "FAIR" INDICATES FEW OR NO CLOUDS BELOW 12,000 FEET
WITH NO SIGNIFICANT WEATHER AND/OR OBSTRUCTIONS TO VISIBILITY.

WYZ001-192300-
YELLOWSTONE NATIONAL PARK

CITY           SKY/WX    TMP DP  RH WIND       PRES   REMARKS
LK YELLOWSTONE   N/A     29  28  96 VRB6      29.83S WCI  23
W YELLOWSTONE  NOT AVBL

$$
WYZ002>013-054>058-071-098>099-192300-
NORTHERN WYOMING

CITY           SKY/WX    TMP DP  RH WIND       PRES   REMARKS
JACKSON        CLOUDY    43  28  55 SW15G29   29.85R
CODY           FAIR      50  36  58 VRB7      29.74R
GREYBULL       FAIR      56  36  47 N16       29.69F
WORLAND        FAIR      57  40  52 NE9       29.71R
SHERIDAN       FAIR      52  38  58 NW9       29.71R
BUFFALO        CLOUDY    44  39  82 NW13      29.73R
GILLETTE       CLOUDY    46  44  93 NW15      29.71R
HULETT         LGT RAIN  46  45  93 NW3       29.71R
NEWCASTLE      FAIR      54  41  62 W7        29.70S

$$
WYZ014>020-022>026-101>103-192300-
CENTRAL WYOMING

CITY           SKY/WX    TMP DP  RH WIND       PRES   REMARKS
BIG PINEY      CLOUDY    37  35  92 W15       29.92R WCI  28
PINEDALE       CLOUDY    37  30  75 W15       29.92R WCI  28
DUBOIS         MOCLDY    39  27  60 NW24G37   29.82R WCI  28
LANDER           N/A    N/A N/A N/A MISG      29.77S
RIVERTON       FAIR      57  20  23 W24G32    29.75R
CASPER         CLOUDY    46  42  86 SW23G31   29.77R
DOUGLAS        CLOUDY    51  33  50 SW24G32   29.78F

$$
WYZ021-027>030-104>119-192300-
SOUTHERN WYOMING

CITY           SKY/WX    TMP DP  RH WIND       PRES   REMARKS
EVANSTON       PTSUNNY   41  35  79 SW8G18    29.97S
FORT BRIDGER   CLOUDY    41  38  89 SW17      29.99F
ROCK SPRINGS   CLOUDY    41  31  67 SW18G31   29.93S
DIXON          LGT RAIN  37  34  91 E3        30.01F
RAWLINS        CLOUDY    36  33  89 SW12      29.92S WCI  28
SARATOGA       LGT SNOW  32  32 100 N3        29.99R VSB 3/4
LARAMIE        FAIR      51  28  41 NW31G40   29.84R
CHEYENNE       FAIR      59  33  37 NW22G37   29.74R
TORRINGTON     FAIR      67  34  29 NW32G45   29.69R
PINE BLUFFS    FAIR      68  34  28 NW33G46   29.71R

$$




USA.gov is the U.S. government's official web portal to all federal, state and local government web resources and services.